Tracking 25744 objects as of 25-Jun-2022
HD Live streaming from Space Station
objects crossing your sky now

STARLINK-1291

Track STARLINK-1291 now!
10-day predictions
STARLINK-1291 is classified as:


NORAD ID: 45393
Int'l Code: 2020-019AK
Perigee: 553.4 km
Apogee: 555.3 km
Inclination: 53.1 °
Period: 95.6 minutes
Semi major axis: 6925 km
RCS: Unknown
Launch date: March 18, 2020
Source: United States (US)
Launch site: AIR FORCE EASTERN TEST RANGE (AFETR)
aabbcc
Your satellite tracking list
Your tracking list is empty




NASA's NSSDC Master Catalog

Two Line Element Set (TLE):
1 45393U 20019AK  22175.52402622  .00000581  00000-0  57900-4 0  9995
2 45393  53.0548 105.7028 0001408  77.0163 283.0983 15.06393366125666
Source of the keplerian elements: AFSPC